Location: Unspecified
(0.0000°N, 0.0000°E)
Time: 12:40:51
(UTC+00:00)

S-56A Canister/Altair - Pass Details

Date: 14 December 2018
Orbit: 632 x 2500 km, 38.9° (Epoch: 15 July)

Event Time Altitude Azimuth Distance (km) Brightness Sun altitude
Rises 10:05:30 0° 322° (NW) 6,162 11.8 54.8°
Reaches altitude 10° 10:09:52 10° 328° (NNW) 5,149 11.5 55.6°
Maximum altitude 10:23:56 48° 38° (NE) 2,722 10.9 58.0°
Drops below altitude 10° 10:34:54 10° 109° (ESE) 4,092 11.8 59.8°
Sets 10:37:54 0° 114° (ESE) 4,849 12.0 60.2°
